Deer Park, WA

6:51 PM PST on February 24, 2017 (GMT -0800)
Deer Park

Weather History for KDEW - February, 2012

Change the Weather History Date:

Thursday, February 16, 2012

  Actual Average Record
Temperature  
Mean Temperature 28 °F 30 °F  
Max Temperature 35 °F 39 °F 54 °F (2016)
Min Temperature 21 °F 21 °F 9 °F (2006)
Degree Days  
Heating Degree Days 37 35  
Month to date heating degree days 493 568  
Since 1 July heating degree days 4693 4964  
Cooling Degree Days 0 0  
Month to date cooling degree days 0 0  
Year to date cooling degree days 0 0  
Moisture  
Dew Point 27 °F    
Average Humidity 81    
Maximum Humidity 92    
Minimum Humidity 70    
Precipitation  
Precipitation 0.02 in 0.05 in 0.64 in (2017)
Month to date precipitation 0.59 1.00  
Year to date precipitation 2.67 3.63  
Sea Level Pressure  
Sea Level Pressure 30.28 in    
Wind  
Wind Speed 2 mph (NNE)    
Max Wind Speed 7 mph    
Max Gust Speed 21 mph    
Visibility 8 miles    
Events Snow    
T = Trace of Precipitation, MM = Missing Value Source: NWS Daily Summary

Daily Weather History Graph

Daily Weather History Graph

Search for Another Location

Airport or City:

Trip Planner

Search our weather history database for the weather conditions in past years. The results will help you decide how hot, cold, wet, or windy it might be!

Date:

Astronomy

Feb. 16, 2012 Rise Set
Actual Time 6:55 AM PST 5:13 PM PST
Civil Twilight 6:23 AM PST 5:45 PM PST
Nautical Twilight 5:46 AM PST 6:21 PM PST
Astronomical Twilight 5:11 AM PST 6:57 PM PST
Moon 3:11 AM PST (2/16) 11:53 AM PST (2/16)
Length of Visible Light 11h 22m
Length of Day
10h 18m
Waning Crescent, 27% of the Moon is Illuminated
Feb 16
Waning Crescent
Feb 21
New
Feb 29
First Quarter
Mar 8
Full
Mar 14
Last Quarter

Hourly Weather History & Observations

Time (PST) Temp. Windchill Dew Point Humidity Pressure Visibility Wind Dir Wind Speed Gust Speed Precip Events Conditions
12:53 AM 21.9 °F 15.7 °F 19.0 °F 89% 30.39 in 10.0 mi NE 4.6 mph - N/A   Clear
1:20 AM 21.2 °F 14.9 °F 19.4 °F 93% 30.31 in 10.0 mi NE 4.6 mph - N/A   Mostly Cloudy
1:53 AM 23.0 °F - 19.9 °F 88% 30.39 in 10.0 mi Calm Calm - N/A   Mostly Cloudy
2:53 AM 27.0 °F - 25.0 °F 92% 30.38 in 10.0 mi Calm Calm - N/A   Overcast
3:53 AM 27.0 °F - 24.1 °F 89% 30.37 in 10.0 mi Calm Calm - N/A   Mostly Cloudy
4:01 AM 26.6 °F - 23.0 °F 86% 30.30 in 10.0 mi Calm Calm - N/A   Scattered Clouds
4:30 AM 24.8 °F - 23.0 °F 93% 30.30 in 10.0 mi Calm Calm - N/A   Mostly Cloudy
4:53 AM 27.0 °F - 24.1 °F 89% 30.38 in 10.0 mi Calm Calm - N/A   Overcast
5:38 AM 28.4 °F - 24.8 °F 86% 30.30 in 10.0 mi Calm Calm - N/A   Overcast
5:53 AM 28.0 °F - 24.1 °F 85% 30.37 in 10.0 mi Calm Calm - N/A   Overcast
6:02 AM 26.6 °F - 24.8 °F 93% 30.30 in 10.0 mi Calm Calm - N/A   Overcast
6:53 AM 27.0 °F 21.6 °F 24.1 °F 89% 30.38 in 10.0 mi NNW 4.6 mph - N/A   Partly Cloudy
7:53 AM 28.9 °F - 26.1 °F 89% 30.38 in 10.0 mi Calm Calm - N/A   Mostly Cloudy
8:53 AM 30.0 °F 25.2 °F 26.1 °F 85% 30.37 in 10.0 mi North 4.6 mph - N/A   Overcast
9:53 AM 32.0 °F - 26.1 °F 79% 30.35 in 10.0 mi Calm Calm - N/A   Overcast
10:53 AM 33.1 °F 27.7 °F 26.1 °F 75% 30.33 in 10.0 mi NE 5.8 mph - N/A   Overcast
11:53 AM 34.0 °F - 26.1 °F 73% 30.31 in 10.0 mi North - - N/A   Overcast
1:53 PM 35.1 °F - 27.0 °F 72% 30.29 in 2.0 mi Calm Calm - 0.00 in Snow Light Snow
2:01 PM 33.8 °F - 28.4 °F 81% 30.22 in 1.5 mi Calm Calm - 0.00 in Snow Light Snow
2:14 PM 33.8 °F - 28.4 °F 81% 30.22 in 3.0 mi North - - 0.00 in Snow Light Snow
2:22 PM 33.8 °F - 28.4 °F 81% 30.22 in 2.0 mi North - - 0.00 in Snow Light Snow
2:33 PM 33.8 °F - 28.4 °F 81% 30.22 in 4.0 mi Calm Calm - 0.00 in Snow Light Snow
2:40 PM 33.8 °F 30.8 °F 28.4 °F 81% 30.22 in 2.5 mi NE 3.5 mph - 0.00 in Snow Light Snow
3:15 PM 33.8 °F - 28.4 °F 81% 30.22 in 1.8 mi Calm Calm - 0.01 in Snow Light Snow
3:24 PM 33.8 °F 30.8 °F 28.4 °F 81% 30.21 in 3.0 mi ENE 3.5 mph - 0.01 in Snow Light Snow
3:37 PM 33.8 °F 30.8 °F 30.2 °F 87% 30.21 in 2.5 mi NE 3.5 mph - 0.01 in Snow Light Snow
3:46 PM 33.8 °F 29.6 °F 30.2 °F 87% 30.21 in 5.0 mi NE 4.6 mph - 0.01 in Snow Light Snow
3:53 PM 33.1 °F 30.0 °F 30.0 °F 89% 30.28 in 8.0 mi ENE 3.5 mph - 0.01 in   Overcast
4:49 PM 33.8 °F - 30.2 °F 87% 30.20 in 6.0 mi North - - N/A   Overcast
4:53 PM 33.1 °F - 30.0 °F 89% 30.27 in 7.0 mi North - - N/A   Overcast
5:24 PM 33.8 °F - 30.2 °F 87% 30.19 in 5.0 mi Calm Calm - 0.00 in Snow Light Snow
5:53 PM 33.1 °F - 30.0 °F 89% 30.26 in 8.0 mi Calm Calm - 0.00 in Snow Light Snow
6:37 PM 32.0 °F 28.7 °F 30.2 °F 93% 30.19 in 10.0 mi North 3.5 mph - 0.00 in   Overcast
6:53 PM 33.1 °F - 30.0 °F 89% 30.27 in 10.0 mi Calm Calm - 0.00 in   Overcast
7:26 PM 33.8 °F 30.8 °F 30.2 °F 87% 30.19 in 10.0 mi NNE 3.5 mph - N/A   Overcast
7:53 PM 33.1 °F 28.7 °F 30.0 °F 89% 30.27 in 9.0 mi North 4.6 mph - N/A   Overcast
8:23 PM 32.0 °F 27.5 °F 30.2 °F 93% 30.20 in 5.0 mi North 4.6 mph - 0.00 in Snow Light Snow
8:53 PM 32.0 °F 27.5 °F 30.0 °F 92% 30.28 in 8.0 mi NNE 4.6 mph - 0.00 in Snow Light Snow
9:25 PM 32.0 °F - 30.2 °F 93% 30.22 in 9.0 mi Calm Calm - 0.01 in Snow Light Snow
9:53 PM 32.0 °F - 30.0 °F 92% 30.28 in 10.0 mi Calm Calm - 0.01 in   Overcast
10:53 PM 32.0 °F - 28.9 °F 88% 30.28 in 10.0 mi Calm Calm - N/A   Overcast
11:12 PM 32.0 °F - 30.2 °F 93% 30.22 in 10.0 mi Calm Calm - N/A   Overcast
11:53 PM 33.1 °F 28.7 °F 30.0 °F 89% 30.28 in 10.0 mi North 4.6 mph - N/A   Overcast